Location: Newark
(46.3500°N, 3.3050°E)
Time: 04:51:27
(UTC+00:00)

ISS - Pass Details

Date: 26 October 2019
Orbit: 412 x 421 km, 51.6° (Epoch: 13 November)

Event Time Altitude Azimuth Distance (km) Brightness Sun altitude
Exits shadow 04:42:18 10° 196° (SSW) 1,488 -1.1 -17.2°
Maximum altitude 04:45:04 25° 139° (SE) 897 -1.7 -16.8°
Drops below altitude 10° 04:47:54 10° 82° (E) 1,506 0.4 -16.3°
Sets 04:50:14 0° 69° (ENE) 2,372 1.4 -15.9°
